TimeCDT,TemperatureF,Dew PointF,Humidity,Sea Level PressureIn,VisibilityMPH,Wind Direction,Wind SpeedMPH,Gust SpeedMPH,PrecipitationIn,Events,Conditions,WindDirDegrees,DateUTC
12:03 AM,53.6,53.6,100,30.09,6.0,Calm,Calm,-,N/A,,Scattered Clouds,0,2012-10-10 05:03:00
12:23 AM,53.6,51.8,94,30.09,5.0,Calm,Calm,-,N/A,,Mostly Cloudy,0,2012-10-10 05:23:00
12:31 AM,53.6,51.8,94,30.10,5.0,Calm,Calm,-,N/A,,Mostly Cloudy,0,2012-10-10 05:31:00
12:53 AM,51.1,51.1,100,30.09,4.0,South,5.8,-,N/A,,Overcast,190,2012-10-10 05:53:00
1:02 AM,51.8,51.8,100,30.11,5.0,South,3.5,-,N/A,,Mostly Cloudy,190,2012-10-10 06:02:00
1:11 AM,51.8,51.8,100,30.11,5.0,South,4.6,-,N/A,,Mostly Cloudy,180,2012-10-10 06:11:00
1:36 AM,51.8,51.8,100,30.11,4.0,Calm,Calm,-,N/A,,Mostly Cloudy,0,2012-10-10 06:36:00
1:53 AM,51.1,51.1,100,30.11,3.0,Calm,Calm,-,N/A,,Overcast,0,2012-10-10 06:53:00
2:13 AM,51.8,50.0,94,30.12,5.0,Calm,Calm,-,N/A,,Overcast,0,2012-10-10 07:13:00
2:20 AM,51.8,50.0,94,30.13,6.0,Calm,Calm,-,N/A,,Overcast,0,2012-10-10 07:20:00
2:53 AM,53.1,52.0,96,30.13,6.0,Calm,Calm,-,N/A,,Mostly Cloudy,0,2012-10-10 07:53:00
3:16 AM,51.8,51.8,100,30.15,6.0,North,3.5,-,N/A,,Scattered Clouds,350,2012-10-10 08:16:00
3:53 AM,52.0,48.0,86,30.14,10.0,North,5.8,-,N/A,,Clear,10,2012-10-10 08:53:00
4:53 AM,50.0,46.0,86,30.16,10.0,North,4.6,-,N/A,,Clear,10,2012-10-10 09:53:00
5:53 AM,48.9,44.1,83,30.19,10.0,Calm,Calm,-,N/A,,Clear,0,2012-10-10 10:53:00
6:53 AM,46.9,42.1,83,30.23,10.0,Calm,Calm,-,N/A,,Clear,0,2012-10-10 11:53:00
7:53 AM,44.1,41.0,89,30.25,10.0,Calm,Calm,-,N/A,,Clear,0,2012-10-10 12:53:00
8:53 AM,51.1,42.1,71,30.26,10.0,Variable,4.6,-,N/A,,Clear,0,2012-10-10 13:53:00
9:53 AM,55.0,36.0,49,30.27,10.0,East,8.1,-,N/A,,Clear,80,2012-10-10 14:53:00
10:53 AM,59.0,32.0,36,30.28,10.0,Variable,6.9,18.4,N/A,,Clear,0,2012-10-10 15:53:00
11:53 AM,61.0,33.1,35,30.27,10.0,Variable,5.8,-,N/A,,Clear,0,2012-10-10 16:53:00
12:53 PM,63.0,34.0,34,30.26,10.0,NNE,5.8,17.3,N/A,,Clear,30,2012-10-10 17:53:00
1:53 PM,64.0,35.1,34,30.23,10.0,ENE,8.1,-,N/A,,Clear,60,2012-10-10 18:53:00
2:53 PM,64.9,34.0,32,30.20,10.0,NNE,4.6,-,N/A,,Clear,30,2012-10-10 19:53:00
3:53 PM,66.0,35.1,32,30.18,10.0,Variable,3.5,-,N/A,,Clear,0,2012-10-10 20:53:00
4:53 PM,64.9,35.1,33,30.17,10.0,East,6.9,-,N/A,,Mostly Cloudy,80,2012-10-10 21:53:00
5:53 PM,63.0,35.1,35,30.17,10.0,NNE,3.5,-,N/A,,Overcast,30,2012-10-10 22:53:00
6:53 PM,61.0,36.0,39,30.17,10.0,ENE,4.6,-,N/A,,Overcast,70,2012-10-10 23:53:00
7:53 PM,60.1,37.9,44,30.18,10.0,East,4.6,-,N/A,,Overcast,90,2012-10-11 00:53:00
8:53 PM,59.0,37.9,46,30.17,10.0,East,3.5,-,N/A,,Overcast,80,2012-10-11 01:53:00
9:53 PM,57.9,42.1,56,30.17,10.0,Calm,Calm,-,N/A,,Overcast,0,2012-10-11 02:53:00
10:53 PM,59.0,39.0,48,30.17,10.0,SE,4.6,-,N/A,,Overcast,130,2012-10-11 03:53:00
11:53 PM,60.1,37.0,42,30.16,10.0,SE,6.9,-,N/A,,Overcast,140,2012-10-11 04:53:00